KJ6SML Weather Reports


Display with metric or nautical units.
time (UTC)temp
F
wind
direction
speed
MPH
gust
MPH
rain 1hr
in
rain 24hr
in
rain mn
in
humidity
%
barometer
mb
20260506231009 58 193 1.0 4.0 0.04 0.11 0.11 90 1005.6
20260506230507 58 89 0.0 3.0 0.04 0.11 0.11 90 1005.6
20260506230019 58 144 1.0 2.0 0.04 0.11 0.11 90 1005.6
20260506225507 58 127 0.0 4.0 0.04 0.11 0.11 90 1005.7
20260506225008 58 184 1.0 4.0 0.03 0.10 0.10 90 1005.7
20260506224525 58 139 1.0 4.0 0.02 0.09 0.09 89 1005.8
20260506224007 58 191 1.0 4.0 0.02 0.08 0.08 89 1005.7
20260506223504 58 301 0.0 3.0 0.02 0.08 0.08 89 1005.8
20260506223006 58 225 0.0 3.0 0.01 0.07 0.07 89 1005.8
20260506222504 58 99 0.0 4.0 0.01 0.07 0.07 89 1005.9
20260506222005 58 278 2.0 8.0 0.01 0.07 0.07 89 1005.9
20260506221514 58 107 1.0 8.0 0.01 0.07 0.07 89 1005.9
20260506221007 58 202 0.0 4.0 0.01 0.07 0.07 89 1006.0
20260506220503 59 360 0.0 3.0 0.01 0.07 0.07 89 1006.1
20260506220002 59 321 1.0 3.0 0.01 0.07 0.07 89 1006.2
20260506215502 59 320 1.0 2.0 0.01 0.07 0.07 89 1006.2
20260506215002 59 140 0.0 5.0 0.01 0.07 0.07 88 1006.2
20260506214503 59 173 2.0 5.0 0.01 0.07 0.07 88 1006.2
20260506214002 59 159 1.0 3.0 0.00 0.06 0.06 88 1006.2
20260506213503 59 155 1.0 4.0 0.00 0.06 0.06 88 1006.3
20260506213003 59 53 1.0 5.0 0.00 0.06 0.06 88 1006.4
20260506211003 59 273 2.0 6.0 0.01 0.06 0.06 88 1006.5
20260506210505 59 217 1.0 4.0 0.01 0.06 0.06 88 1006.6
20260506210002 59 223 0.0 4.0 0.01 0.06 0.06 87 1006.6
20260506205503 59 301 1.0 4.0 0.01 0.06 0.06 87 1006.6
20260506205003 59 190 1.0 7.0 0.01 0.06 0.06 87 1006.8
20260506204504 59 154 1.0 7.0 0.01 0.06 0.06 87 1006.9
20260506204003 59 200 2.0 5.0 0.01 0.06 0.06 87 1006.9
20260506203502 59 250 1.0 7.0 0.01 0.06 0.06 87 1006.9
20260506203010 59 193 2.0 7.0 0.01 0.06 0.06 87 1006.9
20260506202503 59 36 1.0 9.0 0.01 0.06 0.06 87 1006.8
20260506202003 59 290 2.0 9.0 0.02 0.06 0.06 87 1006.8
20260506200008 59 236 2.0 10.0 0.03 0.05 0.05 86 1007.0
20260506195502 60 289 2.0 10.0 0.03 0.05 0.05 87 1006.9
20260506195002 60 183 2.0 6.0 0.03 0.05 0.05 86 1007.0
20260506194503 60 286 3.0 5.0 0.04 0.05 0.05 86 1007.0
20260506194004 60 172 2.0 6.0 0.04 0.05 0.05 86 1007.0
20260506193502 60 236 1.0 10.0 0.04 0.05 0.05 85 1007.0
20260506193004 60 175 2.0 10.0 0.05 0.05 0.05 85 1007.0
20260506192502 60 180 2.0 8.0 0.05 0.05 0.05 85 1007.0
20260506192002 60 224 1.0 8.0 0.04 0.04 0.04 85 1007.1
20260506191503 61 244 2.0 8.0 0.04 0.04 0.04 84 1007.1
20260506191004 61 317 3.0 8.0 0.03 0.03 0.03 84 1007.0
20260506190505 61 130 1.0 7.0 0.03 0.03 0.03 83 1006.9
20260506190004 62 205 0.0 3.0 0.02 0.02 0.02 83 1007.0
20260506185503 62 150 1.0 3.0 0.02 0.02 0.02 82 1007.0
20260506185004 62 224 1.0 3.0 0.02 0.02 0.02 81 1007.0
20260506184515 63 261 1.0 4.0 0.01 0.01 0.01 80 1007.1
20260506184002 63 291 1.0 12.0 0.01 0.01 0.01 78 1007.2
20260506183506 64 198 4.0 12.0 0.01 0.01 0.01 76 1007.3
20260506183004 64 248 2.0 8.0 0.00 0.00 0.00 76 1007.3
20260506182503 65 75 2.0 8.0 0.00 0.00 0.00 74 1007.5
20260506182003 65 295 1.0 5.0 0.00 0.00 0.00 74 1007.6
20260506181503 66 219 1.0 5.0 0.00 0.00 0.00 73 1007.5
20260506181004 67 278 1.0 8.0 0.00 0.00 0.00 71 1007.4
20260506180503 67 270 2.0 8.0 0.00 0.00 0.00 69 1007.4
20260506180006 67 326 2.0 11.0 0.00 0.00 0.00 67 1007.5
20260506175504 68 265 4.0 11.0 0.00 0.00 0.00 65 1007.5
20260506175002 68 219 4.0 10.0 0.00 0.00 0.00 63 1007.5
20260506174505 69 265 3.0 11.0 0.00 0.00 0.00 63 1007.5
20260506174002 70 211 4.0 11.0 0.00 0.00 0.00 59 1007.4
20260506173504 71 236 4.0 11.0 0.00 0.00 0.00 58 1007.3
20260506173004 71 238 3.0 8.0 0.00 0.00 0.00 57 1007.4
20260506172503 72 61 2.0 14.0 0.00 0.00 0.00 56 1007.3
20260506172003 72 183 1.0 14.0 0.00 0.00 0.00 55 1007.3
20260506171503 72 260 3.0 8.0 0.00 0.00 0.00 55 1007.3
20260506171003 72 258 1.0 10.0 0.00 0.00 0.00 55 1007.3
20260506170502 72 338 3.0 12.0 0.00 0.00 0.00 55 1007.4
20260506170009 73 109 2.0 12.0 0.00 0.00 0.00 56 1007.4
20260506165503 73 143 3.0 10.0 0.00 0.00 0.00 54 1007.3
20260506165005 73 190 5.0 11.0 0.00 0.00 0.00 54 1007.5
20260506164504 72 351 2.0 14.0 0.00 0.00 0.00 56 1007.5
20260506164002 72 360 3.0 14.0 0.00 0.00 0.00 56 1007.6
20260506162507 71 119 4.0 13.0 0.00 0.00 0.00 57 1007.9
20260506162006 71 134 3.0 12.0 0.00 0.00 0.00 57 1007.9
20260506161507 71 162 1.0 16.0 0.00 0.00 0.00 58 1008.1
20260506161007 71 104 2.0 16.0 0.00 0.00 0.00 58 1008.2
20260506160503 71 181 3.0 13.0 0.00 0.00 0.00 58 1008.1
20260506160007 71 51 2.0 8.0 0.00 0.00 0.00 60 1008.3
20260506155504 71 98 3.0 9.0 0.00 0.00 0.00 59 1008.2
20260506155003 70 302 3.0 9.0 0.00 0.00 0.00 59 1008.3
20260506154506 70 178 1.0 9.0 0.00 0.00 0.00 62 1008.5
20260506154003 69 153 2.0 9.0 0.00 0.00 0.00 61 1008.5
20260506153503 69 205 1.0 11.0 0.00 0.00 0.00 61 1008.5
20260506153009 69 24 2.0 11.0 0.00 0.00 0.00 61 1008.5
20260506152503 70 161 3.0 7.0 0.00 0.00 0.00 61 1008.7
20260506152004 70 157 3.0 8.0 0.00 0.00 0.00 60 1008.7
20260506151003 70 123 3.0 13.0 0.00 0.00 0.00 60 1009.0
20260506150505 70 296 3.0 10.0 0.00 0.00 0.00 61 1009.0
20260506150008 69 154 2.0 10.0 0.00 0.00 0.00 62 1009.1
20260506145504 70 171 4.0 10.0 0.00 0.00 0.00 63 1009.0
20260506145003 70 99 3.0 10.0 0.00 0.00 0.00 63 1009.1
20260506144524 69 167 3.0 6.0 0.00 0.00 0.00 63 1009.0
20260506144003 69 122 2.0 5.0 0.00 0.00 0.00 64 1009.1
20260506143504 69 211 0.0 5.0 0.00 0.00 0.00 65 1009.2
20260506143008 69 205 2.0 6.0 0.00 0.00 0.00 65 1009.0
20260506142505 69 209 3.0 6.0 0.00 0.00 0.00 66 1009.1
20260506142004 68 174 2.0 6.0 0.00 0.00 0.00 67 1009.1
20260506141511 67 206 2.0 7.0 0.00 0.00 0.00 68 1009.1
20260506140504 67 324 2.0 10.0 0.00 0.00 0.00 69 1009.0
20260506140010 67 178 3.0 10.0 0.00 0.00 0.00 68 1009.0
20260506135504 67 274 4.0 10.0 0.00 0.00 0.00 68 1009.0
20260506135003 66 97 2.0 7.0 0.00 0.00 0.00 69 1009.1
20260506134511 66 277 2.0 9.0 0.00 0.00 0.00 70 1009.3
20260506134003 65 100 1.0 9.0 0.00 0.00 0.00 70 1009.2
20260506133504 65 281 1.0 10.0 0.00 0.00 0.00 71 1009.4
20260506133009 65 111 2.0 10.0 0.00 0.00 0.00 71 1009.3
20260506132505 65 108 2.0 8.0 0.00 0.00 0.00 72 1009.4
20260506132005 65 165 2.0 8.0 0.00 0.00 0.00 72 1009.6
20260506131507 64 63 2.0 8.0 0.00 0.00 0.00 72 1009.7
20260506131004 64 202 4.0 8.0 0.00 0.00 0.00 1009.8
20260506130507 64 186 2.0 10.0 0.00 0.00 0.00 1009.8
20260506130010 63 56 2.0 10.0 0.00 0.00 0.00 74 1009.8
20260506125003 63 171 3.0 12.0 0.00 0.00 0.00 73 1009.7
20260506124504 64 36 1.0 9.0 0.00 0.00 0.00 73 1009.7
20260506124004 63 88 2.0 9.0 0.00 0.00 0.00 74 1009.7
20260506123504 63 182 2.0 10.0 0.00 0.00 0.00 74 1009.7
20260506123009 63 198 3.0 10.0 0.00 0.00 0.00 74 1009.7
20260506122505 63 286 3.0 9.0 0.00 0.00 0.00 75 1009.7
20260506122007 62 331 1.0 9.0 0.00 0.00 0.00 75 1009.8
20260506121510 62 180 2.0 5.0 0.00 0.00 0.00 75 1009.9
20260506121008 62 129 1.0 9.0 0.00 0.00 0.00 76 1009.8
20260506120507 61 155 2.0 9.0 0.00 0.00 0.00 76 1009.7
20260506120022 61 140 1.0 9.0 0.00 0.00 0.00 77 1009.6
20260506115509 61 239 3.0 9.0 0.00 0.00 0.00 77 1009.7
20260506114009 61 167 2.0 7.0 0.00 0.00 0.00 78 1009.9
20260506113504 60 72 2.0 7.0 0.00 0.00 0.00 79 1010.0
20260506113010 60 286 1.0 7.0 0.00 0.00 0.00 79 1010.0
20260506112505 60 202 1.0 7.0 0.00 0.00 0.00 79 1010.1
20260506112004 60 205 3.0 7.0 0.00 0.00 0.00 79 1010.2
20260506111508 59 231 2.0 7.0 0.00 0.00 0.00 79 1010.4
20260506111008 59 202 1.0 7.0 0.00 0.00 0.00 80 1010.3
20260506110509 59 55 1.0 5.0 0.00 0.00 0.00 80 1010.1
20260506110014 59 193 1.0 5.0 0.00 0.00 0.00 80 1010.0
20260506105507 59 109 1.0 2.0 0.00 0.00 0.00 80 1010.1
20260506105008 59 191 1.0 3.0 0.00 0.00 0.00 80 1010.1
20260506103020 57 46 1.0 4.0 0.00 0.00 0.00 82 1009.9
20260506102506 57 229 2.0 4.0 0.00 0.00 0.00 82 1009.9
20260506102005 57 111 1.0 3.0 0.00 0.00 0.00 82 1009.9
20260506101511 57 104 1.0 9.0 0.00 0.00 0.00 81 1010.0
20260506101004 57 159 1.0 9.0 0.00 0.00 0.00 81 1010.1
20260506100505 57 173 0.0 2.0 0.00 0.00 0.00 82 1010.0
20260506095007 57 191 0.0 2.0 0.00 0.00 0.00 81 1009.9
20260506093030 57 229 1.0 2.0 0.00 0.00 0.00 81 1009.8
20260506092507 57 113 0.0 3.0 0.00 0.00 0.00 80 1009.7
20260506092011 57 170 1.0 3.0 0.00 0.00 0.00 80 1009.8
20260506091009 57 109 0.0 3.0 0.00 0.00 0.00 80 1009.9
20260506090508 57 188 1.0 2.0 0.00 0.00 0.00 80 1009.8
20260506090015 58 192 0.0 8.0 0.00 0.00 0.00 79 1009.8
20260506085511 58 5 1.0 8.0 0.00 0.00 0.00 79 1009.8
20260506085008 58 178 1.0 4.0 0.00 0.00 0.00 79 1009.7
20260506084519 58 204 0.0 4.0 0.00 0.00 0.00 79 1009.8
20260506084008 58 217 1.0 4.0 0.00 0.00 0.00 78 1010.0
20260506083508 58 278 0.0 5.0 0.00 0.00 0.00 78 1010.0
20260506083029 58 105 1.0 5.0 0.00 0.00 0.00 78 1010.0
20260506082513 58 196 1.0 8.0 0.00 0.00 0.00 78 1009.9
20260506082012 58 133 0.0 8.0 0.00 0.00 0.00 77 1009.9
20260506073511 59 183 2.0 5.0 0.00 0.00 0.00 76 1009.8
20260506073021 59 214 1.0 6.0 0.00 0.00 0.00 75 1009.7
20260506072509 60 107 2.0 7.0 0.00 0.00 0.00 75 1009.7
20260506072008 60 342 3.0 7.0 0.00 0.00 0.00 75 1009.6
20260506071522 60 78 2.0 8.0 0.00 0.00 0.00 74 1009.6
20260506071007 60 154 2.0 8.0 0.00 0.00 0.00 74 1009.5
20260506070504 60 190 1.0 6.0 0.00 0.00 0.00 74 1009.5
20260506062502 61 176 2.0 10.0 0.00 0.00 0.00 72 1009.4
20260506062005 61 258 3.0 10.0 0.00 0.00 0.00 71 1009.5
20260506061505 61 87 3.0 10.0 0.00 0.00 0.00 71 1009.4
20260506061004 62 271 1.0 6.0 0.00 0.00 0.00 71 1009.4
20260506060505 62 85 2.0 12.0 0.00 0.00 0.00 70 1009.4
20260506051004 62 55 2.0 8.0 0.00 0.00 0.00 67 1009.5
20260506050507 62 59 3.0 8.0 0.00 0.00 0.00 67 1009.5
20260506045004 62 256 2.0 6.0 0.00 0.00 0.00 66 1009.8
20260506044512 63 150 2.0 11.0 0.00 0.00 0.00 66 1009.8
20260506044004 63 179 3.0 11.0 0.00 0.00 0.00 65 1009.8
20260506043510 63 221 4.0 9.0 0.00 0.00 0.00 65 1009.7
20260506043015 63 77 2.0 8.0 0.00 0.00 0.00 65 1009.8
20260506042505 63 238 3.0 8.0 0.00 0.00 0.00 65 1009.9
20260506042013 63 177 1.0 8.0 0.00 0.00 0.00 65 1009.8
20260506041519 62 264 1.0 8.0 0.00 0.00 0.00 66 1009.8
20260506041013 62 150 1.0 8.0 0.00 0.00 0.00 66 1009.8
20260506040508 62 13 1.0 8.0 0.00 0.00 0.00 66 1009.9
20260506040023 62 305 1.0 8.0 0.00 0.00 0.00 66 1009.9
20260506035504 62 55 3.0 6.0 0.00 0.00 0.00 66 1009.9
20260506035003 62 87 2.0 7.0 0.00 0.00 0.00 66 1009.9
20260506034506 62 293 2.0 7.0 0.00 0.00 0.00 67 1009.9
20260506034005 61 76 2.0 6.0 0.00 0.00 0.00 67 1010.0
20260506033507 61 350 1.0 6.0 0.00 0.00 0.00 67 1009.8
20260506033010 61 293 2.0 6.0 0.00 0.00 0.00 67 1009.8
20260506032506 61 229 1.0 6.0 0.00 0.00 0.00 67 1009.8
20260506032009 61 219 2.0 6.0 0.00 0.00 0.00 66 1009.8
20260506031532 61 352 1.0 7.0 0.00 0.00 0.00 66 1009.8
20260506031006 61 254 2.0 7.0 0.00 0.00 0.00 66 1009.8
20260506030509 61 246 1.0 7.0 0.00 0.00 0.00 66 1009.8
20260506030018 61 110 2.0 7.0 0.00 0.00 0.00 66 1009.8
20260506025510 61 259 2.0 6.0 0.00 0.00 0.00 66 1009.8
20260506025010 61 184 1.0 6.0 0.00 0.00 0.00 66 1009.9
20260506024529 61 196 2.0 6.0 0.00 0.00 0.00 65 1009.8
20260506024004 62 271 2.0 6.0 0.00 0.00 0.00 65 1009.9
20260506023505 62 325 2.0 7.0 0.00 0.00 0.00 65 1009.8
20260506023011 62 121 2.0 7.0 0.00 0.00 0.00 64 1009.8
20260506022505 62 220 2.0 7.0 0.00 0.00 0.00 64 1009.8
20260506022009 63 278 3.0 7.0 0.00 0.00 0.00 63 1009.8
20260506021516 63 343 2.0 11.0 0.00 0.00 0.00 63 1009.7
20260506021006 63 190 2.0 11.0 0.00 0.00 0.00 62 1009.8
20260506020506 63 309 2.0 8.0 0.00 0.00 0.00 62 1009.8
20260506020018 63 49 2.0 8.0 0.00 0.00 0.00 62 1009.8
20260506015510 63 250 3.0 9.0 0.00 0.00 0.00 62 1009.8
20260506015007 63 240 2.0 10.0 0.00 0.00 0.00 62 1009.8
20260506014523 63 80 2.0 10.0 0.00 0.00 0.00 61 1009.7
20260506014008 63 188 2.0 8.0 0.00 0.00 0.00 61 1009.6
20260506013510 64 15 2.0 8.0 0.00 0.00 0.00 61 1009.5
20260506013025 64 140 1.0 7.0 0.00 0.00 0.00 61 1009.4
20260506012505 64 246 1.0 8.0 0.00 0.00 0.00 61 1009.3
20260506012010 64 230 4.0 9.0 0.00 0.00 0.00 61 1009.3
20260506011517 64 352 1.0 9.0 0.00 0.00 0.00 60 1009.3
20260506011006 65 155 2.0 9.0 0.00 0.00 0.00 60 1009.1
20260506010511 65 106 2.0 8.0 0.00 0.00 0.00 60 1009.1
20260506010043 65 177 1.0 7.0 0.00 0.00 0.00 59 1009.2
20260506005508 65 277 3.0 10.0 0.00 0.00 0.00 59 1009.1
20260506005006 66 268 3.0 12.0 0.00 0.00 0.00 58 1009.0
20260506004522 66 170 2.0 12.0 0.00 0.00 0.00 58 1009.0
20260506004006 66 188 3.0 9.0 0.00 0.00 0.00 57 1008.9
20260506003510 66 277 2.0 9.0 0.00 0.00 0.00 57 1008.8
20260506003024 67 271 2.0 9.0 0.00 0.00 0.00 56 1008.7
20260506002509 67 22 2.0 8.0 0.00 0.00 0.00 56 1008.7
20260506002013 67 310 2.0 9.0 0.00 0.00 0.00 54 1008.6
20260506001530 68 58 1.0 9.0 0.00 0.00 0.00 54 1008.4
20260506001006 68 227 3.0 9.0 0.00 0.00 0.00 53 1008.3
20260506000508 68 295 4.0 14.0 0.00 0.00 0.00 53 1008.3
20260506000015 68 215 5.0 14.0 0.00 0.00 0.00 53 1008.2
20260505235508 69 76 3.0 10.0 0.00 0.00 0.00 52 1008.1
20260505235011 69 291 1.0 8.0 0.00 0.00 0.00 51 1008.1
20260505234519 69 169 2.0 10.0 0.00 0.00 0.00 51 1008.0
20260505234009 69 172 4.0 10.0 0.00 0.00 0.00 51 1007.9
20260505233507 70 275 3.0 9.0 0.00 0.00 0.00 51 1007.9
20260505233021 70 223 2.0 9.0 0.00 0.00 0.00 50 1007.8
20260505232511 70 344 2.0 9.0 0.00 0.00 0.00 50 1007.7
20260505232009 70 111 2.0 8.0 0.00 0.00 0.00 50 1007.7
20260505231525 71 316 1.0 8.0 0.00 0.00 0.00 49 1007.6